This is the latest recevied weather packets stored in our database for station/object DG4MND-4. If no packets are shown the sender has not sent any weather packets the latest 10 day(s).
| Time | Temp. | Humidity | Pressure | Rain* | Wind** | Luminosity | Snow |
|---|---|---|---|---|---|---|---|
| 1788144331 | 60° F | 98% | 762.7 mmHg | 0.11 in | - | - | - |
| 1788143727 | 60° F | 98% | 762.7 mmHg | 0.11 in | - | - | - |
| 1788143124 | 60° F | 97% | 762.6 mmHg | 0.11 in | - | - | - |
| 1788142521 | 61° F | 97% | 762.8 mmHg | 0.07 in | - | - | - |
| 1788141918 | 61° F | 95% | 762.8 mmHg | 0.06 in | - | - | - |
| 1788141375 | 63° F | 88% | 763.1 mmHg | 0.01 in | - | - | - |
| 1788140771 | 64° F | 86% | 762.6 mmHg | 0 in | - | - | - |
| 1788140169 | 63° F | 89% | 762.4 mmHg | 0 in | - | - | - |
| 1788139564 | 63° F | 91% | 761 mmHg | 0 in | - | - | - |
| 1788138961 | 62° F | 93% | 760.8 mmHg | 0 in | - | - | - |
| 1788138361 | 62° F | 93% | 760.7 mmHg | 0 in | - | - | - |
| 1788137755 | 62° F | 93% | 760.8 mmHg | 0 in | - | - | - |
| 1788137152 | 62° F | 92% | 760.8 mmHg | 0 in | - | - | - |
| 1788136548 | 62° F | 92% | 760.9 mmHg | 0 in | - | - | - |
| 1788135945 | 63° F | 91% | 761 mmHg | 0 in | - | - | - |
| 1788135344 | 63° F | 92% | 761.1 mmHg | 0 in | - | - | - |
| 1788134740 | 62° F | 95% | 761 mmHg | 0 in | - | - | - |
| 1788134135 | 61° F | 96% | 761 mmHg | 0 in | - | - | - |
| 1788133532 | 61° F | 96% | 761.1 mmHg | 0 in | - | - | - |
| 1788132929 | 61° F | 95% | 761.1 mmHg | 0 in | - | - | - |
| 1788132326 | 61° F | 95% | 761.1 mmHg | 0 in | - | - | - |
| 1788131722 | 61° F | 95% | 761.2 mmHg | 0 in | - | - | - |
| 1788131119 | 61° F | 94% | 761.2 mmHg | 0 in | - | - | - |
| 1788130517 | 62° F | 94% | 761.2 mmHg | 0 in | - | - | - |
| 1788129973 | 62° F | 93% | 761.3 mmHg | 0 in | - | - | - |
* Rain latest hour (hover to see other rain measurements)
** Current wind speed in m/s (hover to see current wind gust speed)